Weather in Cagliari

Italy     39°12′58″N   9°07′01″E
temp.,
°C
wind,
m/s
gust,
m/s
humid.,
%
clouds,
%
prec.,
mm/h
press.,
hPa
HPBL,
m
20 april, tue
tue2023:00+9w228712 0.0 101949
02:00+8wnw22880 0.0 101845
05:00+7nw22890 0.0 101851
08:00+9nw22825 0.0 1018100
11:00+15nne015912 0.0 1018735
14:00+16se435458 0.0 10171030
17:00+15se6657100 0.0 1016478
20:00+13sse4571100 0.0 1016176
21 april, wed
wed2123:00+11sse2275100 0.0 101885
02:00+11ese2378100 0.0 1017101
05:00+11e128097 0.0 101669
08:00+12e1280100 0.0 1016175
11:00+16se6873100 0.1 1017998
14:00+17se6867100 0.1 1015843
17:00+17ese6768100 0.0 1014887
20:00+14se3684100 0.1 1014233
22 april, thu
thu2223:00+13se1187100 0.1 101535
02:00+13ese2391100 0.4 1015151
05:00+13ne1294100 0.7 101476
08:00+15se1287100 1.6 101491
11:00+18se6868100 0.0 10151022
14:00+17se6771100 0.1 1014924
17:00+16ese4775100 0.1 1014691
20:00+15se1284100 0.1 101437
23 april, fri
fri2323:00+14n1186100 0.1 101512
02:00+14n0091100 0.4 101411
05:00+13nnw1197100 2.8 101462
08:00+13nw3498100 8.1 1014162
11:00+14nw3595100 7.1 1014252
14:00+14n5891100 10.9 1015541
17:00+14n4783100 0.9 1014437
20:00+14nw338396 0.9 101657
24 april, sat
sat2423:00+12nnw12856 0.0 101735
02:00+11nw22880 0.0 101840
05:00+10nw33900 0.0 101755
08:00+12nw34830 0.0 1018126
11:00+17nne11580 0.0 1019575
14:00+17sse436017 0.0 1018797
17:00+18s5563100 0.0 1018740
20:00+14sse358034 0.0 1019101